Vertical_Velocity
-1 -3 -3 -1 -1 -0 -2 -1 -2 -2 -1 -1 -2 -1 -3 -0 -1 -2 -1 -1 -3 -3 -2 -2 -1 -3 -2 -0 1 -3 -1 1 -1 -1 -0 0 -1 -0 -3 -3 -2 -1 -1 -1 -1 -2 0
-0 -2 -1 -1 -1 -1 -1 -2 -1 -1 -2 -3 -3 -1 1 -0 -1 -2 -0 -1 -2 -1 -1 -1 -1 -1 -3 2 -8 -0 -4 -6 -5 -3 -4 0 -1 -1 -3 -1 -4 -2 -1 -1 -0 -1 -1
-1 -1 0 -0 -1 -2 -2 1 0 -1 -3 -1 -1 -3 -1 -1 -0 -2 -1 -1 -2 -1 -3 -1 -3 0 -3 0 -1 -3 -2 -4 -1 -1 -1 -3 -3 -3 2 -2 -2 -4 -1 -2 -1 -2 -2
-3 -3 -2 -2 -1 -1 -3 -3 -0 0 -0 -2 -1 -1 -2 -2 -0 -3 -2 -2 -2 -1 -4 -4 -2 -1 -2 -1 -3 -0 -1 -1 -2 1 2 1 6 3 0 1 -1 -3 -2 -6 -1 -2 -3
-0 -1 -2 -1 -1 -2 -2 -2 -1 -2 -1 -1 -1 -1 -1 -0 0 -0 -1 -1 -1 -2 -3 -3 -1 -2 0 -1 -3 -2 0 0 2 -2 -4 -9 -8 0 6 5 -2 -1 -2 -1 -2 -4 -3
-0 -1 -1 -1 -1 -2 -2 -1 -2 -2 -2 -1 -0 -1 -1 -2 -2 -1 0 -1 1 -2 -4 -3 -4 -2 -1 0 -2 -1 -3 0 -1 1 -4 -3 5 -3 -8 -3 1 1 -1 2 1 -2 -3
-2 -2 -1 -2 -1 -1 -2 -3 -1 -2 -2 -2 -0 -1 -1 -3 -2 -2 4 2 -0 -1 -1 -0 -2 -3 -2 -1 -2 0 -2 1 -3 3 -0 -4 -2 -6 -6 -6 -5 -1 3 0 2 1 -2
-2 -2 -2 -2 -1 -1 -2 -2 -1 -1 -2 -1 -2 -2 -2 -1 -4 -3 -3 0 -1 0 -4 0 0 -5 -1 -2 -1 -4 -2 -2 0 -5 -3 -1 1 -3 1 0 -1 -2 -4 -4 1 4 -0
-2 -1 0 1 -1 -0 -1 -2 -1 -2 -2 -2 -1 -1 -3 -2 -4 -2 -1 -2 -1 0 -2 -1 -1 1 -4 -1 0 -2 -2 -2 -3 -2 -2 -2 2 -1 0 -2 0 2 -3 -4 -1 -6 1
-1 -1 -1 -2 -2 -1 -1 -1 -2 -2 -2 -2 -2 -2 1 -4 -0 -3 -3 -1 -3 -1 0 -3 -2 0 -2 -2 -0 -1 -2 1 -3 -5 -3 -2 -2 0 -0 -1 -1 -4 -1 1 1 -4 -4
-1 -1 -2 -2 -2 -2 -2 -1 -1 -2 -2 -2 -2 -3 -1 -2 -2 -4 -3 -1 -1 -1 -6 -2 -5 -1 1 -1 -0 -2 -3 -4 -2 -3 -3 -3 -3 -2 1 2 -1 3 1 -2 2 -1 -3
-1 -0 -1 -3 -3 -2 -1 -1 -1 -1 -2 -1 -1 -2 -3 -2 -3 -2 -2 -2 -1 -2 -6 -1 -2 0 -0 1 1 -0 1 -2 -1 0 -0 1 4 1 -2 0 -2 -1 -2 1 1 1 -2
-1 -1 -0 -2 -3 -1 -1 -0 -1 -3 -2 -2 -1 -3 -2 -0 -2 -2 -2 -2 -1 -3 0 0 -2 -3 -0 -4 -6 -2 -4 -2 -2 -1 -0 0 -0 -1 2 -1 1 -1 0 -4 -6 -3 -4
-1 -1 -2 -2 -2 -2 -0 -1 -2 -3 -2 -3 -1 1 -4 -4 -0 -3 -3 -3 -0 0 2 0 -1 -1 -1 -1 -1 -2 -1 -3 1 0 -1 -0 -5 -0 -1 3 2 -2 -2 -1 -3 -2 -4
-1 -1 -0 -1 -1 -3 -1 -2 -2 -2 -2 -2 -1 -1 -4 1 -4 -2 -6 -1 0 0 -1 -2 1 -3 -1 -2 -3 -3 1 -1 -1 -2 -4 -1 -1 -1 -0 -2 -0 1 0 -2 -1 2 1
-2 -1 -1 -2 -2 -1 -2 -1 -2 -2 -1 -2 -1 -4 -2 -2 -2 -2 -3 -1 -1 1 1 -1 -3 -3 -1 -1 -0 1 -3 2 -0 3 0 2 -7 -2 3 -0 -1 0 2 1 1 -4 -1
-3 -0 -2 0 -2 -1 -1 -1 -3 -2 -2 -2 -3 -3 -1 -0 2 -4 -1 -3 -3 -0 4 2 4 -0 3 1 -1 -1 5 0 3 1 1 1 3 -6 3 0 1 -1 -0 2 1 1 -3
-3 -1 -3 1 -2 -1 -1 -2 -1 -1 -4 -1 -4 -3 -4 -4 -2 -2 -0 0 -0 1 -2 1 1 1 -2 3 -1 1 -0 -2 -1 -4 -5 -1 1 -3 -2 2 6 8 -1 7 5 -1 2
0 0 -2 -2 0 -2 -2 -3 0 -4 -2 -6 -2 -2 -1 -0 -1 -4 -2 0 2 2 -1 -0 2 -1 -2 1 -3 0 1 -2 5 1 -1 -5 5 -1 -6 2 0 3 -3 -6 4 7 -4
-6 1 -3 0 -1 -4 0 -4 -2 1 -1 -0 -5 -6 -3 0 -1 -0 -1 0 0 -1 -6 -2 -3 -3 -5 -2 3 -4 3 2 -1 -0 -0 6 -6 3 -8 1 8 1 2 5 8 1 -2
1 1 -1 -3 -4 1 -3 -1 -2 -2 -3 -1 3 -2 -4 -4 -4 -1 -4 1 1 -1 -1 7 -1 -3 -5 -2 -5 -1 2 -2 1 3 -2 -0 -7 8 -5 5 4 -2 3 3 5 -9 14
4 -1 0 -2 -1 0 -2 -7 -7 -5 -4 -1 -0 1 -5 -5 -1 -1 -3 -1 -0 -2 5 -1 0 1 -4 -7 -5 -11 -0 4 -1 -3 9 4 -3 1 -7 -3 -4 -7 -8 -1 6 -1 -1
2 6 -0 -1 2 2 -2 -2 0 -2 -1 -3 -1 -1 -2 -5 -8 2 -3 -2 -3 4 1 6 8 1 9 7 2 1 -2 -3 -3 2 1 9 9 3 -10 5 -1 -6 9 6 1 12 6
7 3 -1 2 -0 2 -0 0 1 -1 3 -5 -2 -1 -5 1 -5 4 -0 -1 -8 -9 2 -3 -3 1 -2 -1 0 -4 -4 -1 1 2 8 1 7 3 -5 -4 -0 7 1 9 1 3 8
-9 -4 -2 3 2 5 2 -0 -2 -1 -3 -3 -0 1 -2 -4 -4 2 -1 -5 -1 -2 -3 -5 4 -3 1 -0 -3 -4 -8 -3 3 3 4 5 5 -0 -2 3 -15 -5 3 -3 -5 -0 -1
-0 7 -6 4 3 8 5 3 -2 -3 -1 -5 3 2 -4 -2 -3 3 2 -3 1 2 1 -4 -8 -0 1 -2 -5 -1 -5 -3 3 -1 -2 2 2 2 1 4 -0 4 -1 7 8 4 -1
8 10 -4 4 7 7 5 3 0 -3 -1 4 -2 -4 2 -1 -3 -5 5 6 -2 -4 -3 3 1 -1 -4 3 1 0 -2 2 -0 4 3 1 4 -7 -0 1 -6 -5 -7 -5 9 4 6
9 6 10 5 9 6 6 0 -1 -1 -1 1 -3 1 -0 -5 -5 2 3 -2 -0 -2 -5 -3 -1 -0 -3 1 -1 -2 3 1 2 -1 5 -2 0 -3 6 5 -10 2 11 1 9 6 9
5 17 12 5 14 8 12 4 1 -2 5 -2 2 -2 -3 -5 3 2 5 5 -1 -1 -9 3 -1 -1 -3 -1 1 -0 -2 0 3 -7 -3 -2 5 1 4 -1 13 6 12 12 4 6 3
Height
3179 3179 3178 3176 3175 3174 3173 3172 3169 3167 3165 3162 3159 3155 3151 3146 3141 3136 3130 3126 3123 3121 3120 3120 3120 3118 3118 3118 3118 3116 3115 3114 3113 3110 3109 3108 3106 3105 3105 3105 3105 3104 3103 3103 3102 3100 3099
3179 3179 3177 3176 3176 3175 3173 3171 3169 3167 3164 3161 3157 3153 3149 3144 3139 3133 3128 3124 3121 3118 3117 3117 3117 3117 3116 3117 3116 3114 3114 3113 3112 3111 3108 3107 3106 3105 3104 3104 3104 3104 3102 3102 3101 3099 3097
3178 3178 3177 3177 3175 3174 3173 3171 3169 3166 3163 3159 3156 3151 3146 3141 3137 3132 3127 3122 3118 3116 3115 3115 3115 3115 3115 3116 3114 3114 3114 3113 3112 3110 3108 3106 3105 3104 3104 3103 3103 3102 3103 3100 3099 3096 3095
3177 3177 3176 3176 3175 3174 3172 3170 3167 3165 3162 3158 3154 3149 3144 3140 3134 3130 3126 3122 3118 3115 3114 3114 3113 3113 3113 3113 3113 3113 3113 3112 3111 3110 3109 3107 3105 3104 3103 3103 3101 3100 3101 3098 3097 3095 3094
3175 3175 3174 3174 3173 3172 3170 3168 3166 3163 3160 3156 3152 3147 3143 3138 3133 3128 3125 3122 3118 3115 3113 3113 3113 3112 3113 3113 3113 3112 3112 3111 3110 3110 3109 3108 3107 3105 3105 3102 3101 3099 3098 3098 3097 3094 3092
3174 3173 3173 3172 3171 3170 3168 3166 3164 3161 3158 3154 3150 3146 3141 3136 3131 3127 3123 3120 3117 3115 3113 3113 3113 3115 3113 3112 3111 3111 3111 3110 3109 3108 3108 3107 3105 3103 3104 3104 3102 3100 3098 3096 3094 3093 3088
3172 3171 3171 3170 3169 3168 3166 3164 3161 3158 3155 3152 3148 3143 3139 3134 3130 3125 3123 3120 3120 3117 3113 3112 3111 3110 3110 3110 3110 3110 3110 3109 3109 3108 3107 3105 3104 3102 3101 3101 3101 3101 3099 3095 3093 3090 3085
3170 3169 3168 3168 3166 3165 3163 3161 3159 3156 3153 3150 3146 3142 3137 3133 3128 3124 3120 3119 3116 3116 3112 3110 3109 3109 3108 3108 3110 3110 3110 3110 3107 3106 3106 3105 3101 3101 3100 3098 3098 3097 3096 3094 3090 3088 3085
3166 3166 3165 3164 3163 3161 3159 3158 3156 3153 3150 3147 3144 3139 3135 3131 3126 3123 3120 3118 3115 3113 3112 3112 3110 3109 3109 3110 3110 3110 3110 3108 3108 3106 3104 3103 3102 3100 3099 3099 3098 3095 3092 3091 3089 3083 3080
3163 3163 3162 3161 3160 3159 3157 3154 3152 3150 3147 3144 3141 3136 3133 3128 3127 3121 3119 3116 3113 3111 3111 3114 3112 3111 3110 3109 3110 3109 3108 3109 3106 3104 3103 3102 3100 3099 3097 3096 3095 3094 3092 3089 3086 3083 3082
3159 3159 3158 3157 3156 3155 3153 3151 3149 3147 3144 3141 3138 3135 3129 3126 3123 3120 3118 3115 3112 3111 3113 3115 3112 3111 3109 3110 3110 3108 3107 3105 3103 3102 3101 3100 3097 3096 3096 3094 3094 3093 3089 3087 3084 3081 3080
3155 3155 3154 3154 3152 3151 3149 3147 3145 3143 3141 3138 3135 3132 3128 3124 3121 3119 3116 3113 3111 3112 3111 3112 3111 3111 3110 3109 3108 3106 3105 3103 3101 3099 3098 3097 3096 3094 3092 3092 3092 3089 3087 3083 3080 3079 3079
3151 3151 3150 3149 3148 3147 3145 3143 3142 3140 3137 3135 3132 3129 3124 3121 3119 3117 3115 3114 3112 3109 3112 3113 3111 3110 3109 3107 3105 3103 3103 3102 3101 3098 3096 3095 3092 3093 3092 3090 3089 3088 3085 3082 3084 3082 3077
3148 3147 3146 3146 3144 3142 3142 3140 3138 3136 3134 3132 3130 3127 3122 3118 3116 3115 3114 3114 3111 3111 3110 3111 3110 3109 3108 3106 3104 3102 3100 3100 3099 3098 3096 3094 3092 3091 3092 3092 3088 3085 3086 3086 3089 3086 3078
3144 3143 3143 3142 3140 3139 3137 3137 3135 3133 3130 3129 3127 3125 3121 3118 3115 3114 3115 3113 3111 3111 3111 3110 3109 3108 3107 3105 3105 3101 3099 3097 3095 3095 3097 3095 3092 3090 3088 3088 3089 3085 3083 3084 3083 3080 3078
3140 3139 3139 3139 3137 3136 3134 3133 3131 3129 3126 3125 3124 3122 3119 3116 3114 3113 3112 3112 3111 3111 3109 3107 3106 3107 3105 3102 3101 3099 3096 3095 3095 3094 3094 3094 3090 3087 3086 3085 3084 3085 3084 3082 3080 3082 3077
3136 3135 3135 3135 3133 3132 3130 3129 3127 3125 3123 3122 3121 3118 3117 3114 3112 3111 3109 3108 3108 3108 3109 3109 3106 3105 3105 3102 3099 3098 3096 3094 3093 3093 3092 3090 3089 3086 3082 3082 3080 3081 3083 3080 3079 3076 3076
3130 3130 3130 3130 3130 3127 3126 3125 3124 3122 3120 3119 3118 3117 3114 3112 3112 3108 3107 3106 3105 3104 3106 3106 3105 3103 3104 3103 3100 3098 3095 3093 3090 3089 3089 3088 3086 3080 3079 3079 3079 3078 3078 3080 3078 3073 3071
3124 3124 3124 3124 3124 3123 3122 3121 3120 3118 3118 3116 3115 3113 3112 3109 3107 3105 3105 3105 3103 3101 3100 3101 3101 3100 3100 3101 3101 3097 3096 3094 3091 3088 3087 3086 3083 3078 3073 3074 3074 3075 3074 3075 3075 3072 3067
3118 3118 3118 3118 3117 3118 3118 3117 3116 3114 3113 3113 3112 3111 3110 3106 3105 3105 3103 3101 3100 3098 3097 3094 3095 3095 3096 3097 3098 3093 3092 3090 3087 3086 3084 3082 3079 3078 3072 3070 3071 3069 3070 3069 3069 3065 3059
3111 3112 3112 3113 3112 3113 3112 3112 3112 3110 3109 3110 3108 3106 3107 3106 3102 3101 3100 3100 3096 3094 3094 3091 3087 3086 3088 3089 3087 3088 3085 3084 3084 3082 3081 3078 3071 3072 3071 3069 3065 3063 3060 3061 3058 3053 3053
3104 3106 3107 3108 3108 3108 3108 3108 3108 3106 3106 3106 3105 3103 3102 3103 3101 3097 3095 3095 3095 3094 3093 3087 3085 3082 3081 3081 3082 3079 3080 3082 3078 3077 3075 3072 3065 3064 3062 3063 3061 3052 3049 3048 3047 3044 3040
3096 3098 3100 3101 3102 3102 3102 3102 3101 3101 3101 3100 3100 3098 3097 3097 3098 3094 3091 3089 3090 3090 3088 3088 3083 3080 3078 3074 3071 3071 3069 3069 3070 3068 3068 3070 3066 3064 3054 3056 3054 3046 3042 3042 3041 3040 3037
3088 3090 3092 3094 3095 3096 3096 3096 3095 3095 3095 3095 3094 3092 3093 3090 3090 3088 3084 3084 3083 3086 3085 3082 3081 3076 3075 3071 3066 3063 3063 3061 3058 3059 3060 3059 3064 3065 3055 3055 3052 3040 3040 3040 3036 3035 3033
3078 3081 3083 3086 3087 3087 3088 3089 3088 3087 3088 3089 3089 3088 3087 3084 3084 3083 3079 3078 3077 3076 3078 3078 3075 3072 3069 3066 3063 3057 3056 3055 3054 3054 3053 3054 3058 3059 3057 3053 3044 3037 3038 3038 3035 3034 3031
3068 3070 3074 3076 3077 3078 3078 3079 3081 3080 3080 3081 3082 3081 3080 3081 3079 3076 3073 3072 3072 3069 3070 3069 3069 3068 3067 3060 3059 3058 3055 3054 3052 3052 3052 3052 3054 3055 3055 3053 3044 3036 3035 3035 3034 3031 3029
3057 3059 3063 3064 3067 3068 3068 3070 3072 3072 3072 3074 3075 3076 3075 3074 3072 3071 3069 3065 3064 3065 3068 3066 3062 3063 3063 3059 3056 3057 3054 3054 3051 3050 3050 3049 3049 3048 3048 3048 3039 3036 3034 3033 3032 3034 3027
3047 3048 3051 3054 3056 3059 3059 3061 3064 3064 3065 3068 3069 3068 3070 3069 3067 3064 3061 3061 3059 3059 3060 3060 3063 3058 3058 3058 3055 3054 3053 3051 3050 3050 3048 3047 3048 3046 3045 3045 3038 3033 3032 3030 3029 3024 3023
3035 3036 3040 3043 3044 3047 3048 3050 3054 3056 3058 3059 3062 3060 3060 3063 3063 3059 3057 3054 3053 3051 3054 3054 3056 3053 3055 3055 3054 3051 3049 3047 3047 3046 3048 3046 3045 3043 3043 3036 3032 3028 3029 3025 3022 3019 3017